Regional Weather Roundup
Issued by NWS

Home | Current Version | Previous Version | Graphics & Text | Print | Product List | Glossary On
Versions: 1 2 3 4 5 6 7 8 9 10 11 12 13 14 15 16 17 18 19 20 21 22 23 24 25 26 27 28 29 30 31 32 33 34 35 36 37 38 39 40 41 42 43 44 45 46 47 48 49 50
000
ASUS43 KDTX 200801
RWRMI
MICHIGAN HOURLY REGIONAL WEATHER ROUNDUP
NATIONAL WEATHER SERVICE DETROIT/PONTIAC MI
300 AM EST SAT DEC 20 2014

NOTE: "FAIR" INDICATES FEW OR NO CLOUDS BELOW 12,000 FEET WITH NO
SIGNIFICANT WEATHER AND/OR OBSTRUCTION TO VISIBILITY.

MIZ047>049-052>055-059>063-066>070-074>076-081>083-200900-
SOUTHEAST LOWER MICHIGAN

CITY           SKY/WX    TMP DP  RH WIND       PRES   REMARKS
ADRIAN         CLOUDY    29  24  82 CALM      30.28R
ALMA           CLEAR     16  15  96 CALM      30.28S
ANN ARBOR      CLOUDY    27  22  81 CALM      30.29R
BAD AXE        MOCLDY    15  14  97 CALM      30.29S
CARO           CLEAR     15  12  90 CALM      30.29S
DETROIT CITY   PTCLDY    23  18  81 W3        30.30R
DETROIT        CLOUDY    25  21  85 CALM      30.30R
FLINT          CLEAR     19  15  84 E3        30.28S
GROSSE ILE     CLOUDY    27  21  80 CALM      30.29R
HILLSDALE      CLOUDY    26  25  94 CALM      30.25R
HOWELL         MOCLDY    17  16  95 CALM      30.27R

CITY           SKY/WX    TMP DP  RH WIND       PRES   REMARKS
JACKSON        CLOUDY    21  18  88 CALM      30.26S
LAMBERTVILLE   CLOUDY    32  23  69 CALM      30.28S
LANSING        CLEAR     19  15  84 CALM      30.29R
LAPEER         FAIR      16  14  94 CALM      30.28S
MASON          MOCLDY    20  18  93 CALM      30.28R
MONROE         CLOUDY    28  23  80 NE3       30.28R
MT. CLEMENS    PTCLDY    22  22  98 W2        30.27S
PONTIAC        PTCLDY    19  16  88 CALM      30.26R
PORT HOPE        N/A     26  20  77 SW3       30.27R
PORT HURON     CLOUDY    19  19 100 CALM      30.29R
TRI CITIES     CLEAR     22  17  81 CALM      30.29S
TROY           PTCLDY    24  20  85 CALM      30.30R
SAGINAW HB     CLEAR     21  21 100 CALM      30.29S
$$
MIZ043>046-050>051-056>058-064>065-071>073-077>080-200900-
SOUTHWEST LOWER MICHIGAN

CITY           SKY/WX    TMP DP  RH WIND       PRES   REMARKS
BATTLE CREEK   MOCLDY    21  16  81 CALM      30.27R
BENTON HARBOR  CLOUDY    25  21  85 CALM      30.27S
BIG RAPIDS     PTCLDY    16  15  96 CALM      30.26R
COLDWATER      CLOUDY    25  23  93 MISG      30.26R FOG
FREMONT        FAIR      20  17  91 CALM      30.26S
HOLLAND        PTCLDY    22  17  81 CALM      30.28R
GRAND RAPIDS   PTCLDY    19  16  88 CALM      30.27R
IONIA          FAIR      20  20  98 CALM      30.27R
KALAMAZOO      PTCLDY    21  18  88 CALM      30.27R FOG
LUDINGTON      MOCLDY    20  18  89 E5        30.28S WCI  14
MARSHALL       CLOUDY    19  17  93 CALM      30.26S
MOUNT PLEASANT CLEAR     17  16  94 CALM      30.27S
MUSKEGON       PTCLDY    21  16  81 CALM      30.28R
SOUTH HAVEN    PTCLDY    20  19  92 CALM      30.27S
$$
MIZ016>042-200900-
NORTHERN LOWER MICHIGAN

CITY           SKY/WX    TMP DP  RH WIND       PRES   REMARKS
ALPENA         CLEAR      9   5  84 CALM      30.28R
BEAVER ISLAND  CLOUDY    19  18  95 CALM      30.27R
BELLAIRE       CLOUDY    24  22  90 CALM      30.29R
CADILLAC       PTCLDY     6   3  86 CALM      30.24R
CHARLEVOIX     CLOUDY    24  22  89 SE3       30.30R
FRANKFORT      CLOUDY    28  25  88 CALM      30.27S
GAYLORD        FOG        6   5  95 SW3       30.24R VSB 1/4
GRAYLING       CLOUDY     8   6  90 CALM      30.26S
HARBOR SPRINGS PTCLDY    10   8  89 NE3       30.27S
HOUGHTON LAKE  CLEAR      7   3  84 CALM      30.26R
MANISTEE       CLOUDY    25  18  74 CALM      30.28R
OSCODA         CLEAR      7   5  90 CALM      30.28S
PELLSTON       PTCLDY     0  -5  79 CALM      30.28R
ROGERS CITY    CLEAR     14  13  98 SW3       30.28S
TRAVERSE CITY  CLOUDY    27  20  75 VRB3      30.27S
$$
MIZ007>008-015-200900-
EASTERN UPPER MICHIGAN

CITY           SKY/WX    TMP DP  RH WIND       PRES   REMARKS
KINROSS        PTCLDY     9   9 100 CALM      30.27R
MACKINAC ISLAN PTCLDY    17  17  97 CALM      30.27R
NEWBERRY       CLOUDY    23  20  89 CALM      30.25R
S. S. MARIE    PTCLDY    15  11  83 E3        30.30R
MUNISING         N/A     20  14  77 S6        30.25S WCI  12
$$
MIZ004>006-011>014-085-200900-
CENTRAL UPPER MICHIGAN

CITY           SKY/WX    TMP DP  RH WIND       PRES   REMARKS
MANISTIQUE     MOCLDY    21  19  94 CALM      30.26S
ESCANABA       PTCLDY    12  10  92 W5        30.25S WCI   4
MENOMINEE      PTCLDY    12  10  92 CALM      30.26S
SAWYER-GWINN   FOG       11   8  89 SW3       30.21R VSB 1/2
$$
MIZ001>003-009>011-084-200900-
WESTERN UPPER MICHIGAN

CITY           SKY/WX    TMP DP  RH WIND       PRES   REMARKS
IRON MOUNTAIN  FOG       14  12  92 CALM      30.21S VSB 1/4
HOUGHTON       CLOUDY    22  17  81 SW3       30.18S
COPPER HARBOR    N/A     26  21  81 CALM      30.21S
IRONWOOD       CLOUDY    25  21  86 S7        30.14S WCI  17
$$

ABBREVIATIONS USED IN REMARKS
   TC - TEMPERATURE IN CELSIUS
  WCI - WIND CHILL INDEX
   HX - HEAT INDEX
  VSB - VISIBILITY



USA.gov is the U.S. government's official web portal to all federal, state and local government web resources and services.